Cloud_Cover
0 2 36 8 5 4 40 37 5 6 71 39 43 75 95 26 5 8 17 5 5 0 0 0 0 0 0 0 0 0 1 0 0 0 0 0 0 26 47 0 0 0 0 0 0
0 0 0 2 28 4 1 12 27 10 5 6 25 34 8 53 15 15 11 5 1 0 0 0 0 0 0 0 0 0 0 0 0 0 95 5 89 100 16 0 48 4 0 0 0
0 0 0 0 0 5 0 0 0 0 0 1 3 74 85 73 21 5 2 0 0 0 0 0 0 0 0 0 0 0 0 0 0 0 39 16 53 68 2 0 43 0 0 0 0
0 0 0 0 0 0 0 0 0 0 0 0 0 0 2 5 3 0 0 0 5 0 0 0 0 0 1 0 0 0 0 0 0 0 5 51 100 90 0 0 30 0 0 0 0
1 4 0 0 0 3 3 4 0 0 0 1 1 0 0 7 0 3 4 0 0 0 2 5 4 1 2 0 0 5 1 0 0 0 7 46 100 100 2 0 0 1 0 0 0
5 5 2 5 4 5 5 5 4 0 0 12 12 3 4 86 4 1 0 4 3 1 4 0 0 5 7 5 5 5 5 0 2 1 1 1 18 62 6 7 1 1 5 0 0
5 1 5 5 5 5 5 33 5 5 5 26 18 51 93 67 60 5 5 5 7 30 12 5 5 5 32 8 5 48 5 5 5 5 0 0 4 0 0 0 2 0 5 1 0
9 5 5 5 5 5 30 58 61 35 5 21 47 18 100 100 76 42 43 6 5 5 55 46 5 5 5 29 100 8 15 78 86 11 3 5 96 10 0 0 4 5 5 0 0
49 34 23 62 17 8 5 10 20 14 27 44 69 10 100 100 100 98 6 6 7 13 5 5 5 28 79 93 16 5 86 99 100 100 28 12 100 82 2 0 4 5 5 0 0
12 93 5 5 26 4 26 22 71 3 4 8 8 52 38 98 100 100 100 91 66 27 7 5 5 2 16 12 11 7 5 5 28 63 6 92 100 100 100 69 98 24 4 0 0
9 5 5 5 95 32 88 5 46 60 87 70 4 17 88 100 100 100 100 100 100 100 46 5 5 5 5 5 5 5 5 5 5 25 6 100 100 100 100 100 100 100 6 1 0
99 74 16 30 5 5 7 6 5 40 22 10 5 3 5 52 74 100 100 100 100 100 100 71 80 54 27 61 38 34 5 93 100 99 25 65 100 100 100 100 100 100 88 11 30
100 100 100 18 5 5 5 40 91 5 7 90 22 13 25 95 80 100 93 84 100 100 100 25 21 43 19 38 72 89 46 40 96 96 85 95 100 100 100 100 100 100 100 100 100
100 100 100 22 5 5 5 5 5 3 2 2 57 22 10 43 94 100 100 91 60 58 100 100 98 65 92 57 62 14 40 76 34 95 45 98 95 100 100 100 100 100 100 100 100
100 100 100 98 72 56 5 5 5 5 8 0 5 6 87 99 80 80 71 8 90 100 100 100 100 94 80 69 13 59 36 20 88 39 69 100 26 100 100 100 100 100 100 100 100
80 100 100 75 90 89 52 5 5 61 100 5 5 5 5 6 55 94 58 58 85 80 87 33 67 100 100 100 100 60 27 17 3 38 98 86 73 100 100 100 100 100 100 100 100
100 94 100 82 99 100 28 7 45 98 5 9 5 6 41 65 83 90 71 93 100 99 79 99 84 61 100 100 100 100 84 20 22 8 13 26 69 100 100 100 100 100 100 83 4
100 99 100 100 100 100 97 79 100 94 5 70 63 5 5 90 96 52 24 5 89 100 87 13 64 65 38 98 98 100 100 100 100 15 36 5 33 100 100 100 100 100 100 73 3
100 100 100 100 100 100 98 100 74 90 100 100 100 66 79 34 78 97 90 100 93 100 100 100 15 100 100 100 98 100 100 100 100 100 93 4 11 86 100 100 48 5 5 5 2
91 100 100 100 100 100 100 100 88 100 100 100 100 100 100 100 100 100 100 65 100 100 100 100 92 100 100 100 50 100 100 100 100 100 100 25 6 15 100 100 100 89 20 42 89
100 100 100 100 100 100 100 100 98 100 100 100 100 100 100 100 100 100 100 100 100 100 100 100 100 100 100 100 100 100 100 100 100 100 100 100 100 100 100 100 100 100 100 69 100
100 100 100 100 100 100 100 100 100 100 100 100 100 100 100 100 100 100 100 100 100 100 100 100 100 100 100 100 100 100 100 100 100 100 100 100 100 100 100 100 100 100 100 100 100
100 100 100 100 100 100 100 100 100 100 100 100 100 100 100 100 100 100 100 100 100 100 100 100 100 100 100 100 100 100 100 100 100 100 100 100 100 100 100 100 100 100 100 100 100
100 100 100 100 100 100 100 100 100 100 100 100 100 100 100 100 100 100 100 100 100 100 100 100 100 100 100 55 73 100 100 100 100 100 100 100 100 100 100 100 100 100 100 100 100
100 100 100 79 97 100 100 100 33 56 90 100 97 100 100 100 100 100 80 93 75 100 100 100 100 59 72 67 100 82 91 91 99 100 100 100 100 100 90 48 93 100 100 94 100
90 99 98 98 99 100 100 100 100 100 100 100 100 100 93 40 30 100 89 50 82 60 93 100 100 100 86 18 100 100 19 5 5 4 99 100 26 5 5 6 5 99 99 39 5
5 7 20 5 5 13 15 5 5 5 48 26 59 77 6 24 59 100 100 96 100 100 100 100 99 98 90 5 68 97 1 0 0 0 0 2 30 7 5 5 10 5 10 6 5